| time (UTC) | temp F | wind direction | speed MPH | gust MPH | rain 1hr in | rain 24hr in | rain mn in | humidity % | barometer mb |
| 20260508181048 | 68 | 355 | 6.0 | 10.0 | 0.00 | 0.00 | 0.00 | 71 | 1014.3 |
| 20260508180548 | 67 | 294 | 2.0 | 10.0 | 0.00 | 0.00 | 0.00 | 72 | 1014.4 |
| 20260508180047 | 67 | 303 | 2.0 | 10.0 | 0.00 | 0.00 | 0.00 | 73 | 1014.4 |
| 20260508175813 | 66 | 42 | 1.0 | 9.0 | 0.00 | 0.00 | 0.00 | 75 | 1014.4 |
| 20260508174547 | 66 | 348 | 6.0 | 9.0 | 0.00 | 0.00 | 0.00 | 76 | 1014.5 |
| 20260508174045 | 66 | 330 | 8.0 | 9.0 | 0.00 | 0.00 | 0.00 | 77 | 1014.5 |
| 20260508173547 | 66 | 342 | 6.0 | 9.0 | 0.00 | 0.00 | 0.00 | 78 | 1014.6 |
| 20260508173048 | 65 | 330 | 5.0 | 7.0 | 0.00 | 0.00 | 0.00 | 77 | 1014.6 |
| 20260508172546 | 65 | 259 | 2.0 | 6.0 | 0.00 | 0.00 | 0.00 | 75 | 1014.6 |
| 20260508172310 | 65 | 282 | 1.0 | 6.0 | 0.00 | 0.00 | 0.00 | 78 | 1014.7 |
| 20260508171546 | 65 | 302 | 5.0 | 6.0 | 0.00 | 0.00 | 0.00 | 77 | 1014.6 |
| 20260508171045 | 65 | 271 | 1.0 | 6.0 | 0.00 | 0.00 | 0.00 | 77 | 1014.7 |
| 20260508170546 | 64 | 259 | 1.0 | 6.0 | 0.00 | 0.00 | 0.00 | 79 | 1014.7 |
| 20260508170046 | 64 | 283 | 2.0 | 5.0 | 0.00 | 0.00 | 0.00 | 80 | 1014.7 |
| 20260508165546 | 64 | 291 | 1.0 | 6.0 | 0.00 | 0.00 | 0.00 | 81 | 1014.7 |
| 20260508165044 | 63 | 260 | 2.0 | 6.0 | 0.00 | 0.00 | 0.00 | 81 | 1014.7 |
| 20260508164546 | 63 | 300 | 1.0 | 6.0 | 0.00 | 0.00 | 0.00 | 80 | 1014.8 |
| 20260508164046 | 62 | 256 | 0.0 | 6.0 | 0.00 | 0.00 | 0.00 | 80 | 1014.8 |
| 20260508163544 | 62 | 272 | 1.0 | 5.0 | 0.00 | 0.00 | 0.00 | 82 | 1014.8 |
| 20260508163041 | 62 | 281 | 2.0 | 6.0 | 0.00 | 0.00 | 0.00 | 82 | 1014.8 |
| 20260508162545 | 62 | 283 | 4.0 | 6.0 | 0.00 | 0.00 | 0.00 | 83 | 1014.8 |
| 20260508162046 | 62 | 358 | 2.0 | 6.0 | 0.00 | 0.00 | 0.00 | 83 | 1014.8 |
| 20260508161544 | 62 | 2 | 3.0 | 7.0 | 0.00 | 0.00 | 0.00 | 83 | 1014.7 |
| 20260508161045 | 62 | 300 | 4.0 | 7.0 | 0.00 | 0.00 | 0.00 | 84 | 1014.8 |
| 20260508160546 | 62 | 338 | 5.0 | 7.0 | 0.00 | 0.00 | 0.00 | 84 | 1014.9 |
| 20260508160045 | 62 | 286 | 0.0 | 5.0 | 0.00 | 0.00 | 0.00 | 85 | 1014.9 |
| 20260508155544 | 62 | 277 | 3.0 | 3.0 | 0.00 | 0.00 | 0.00 | 84 | 1014.9 |
| 20260508155044 | 62 | 271 | 2.0 | 2.0 | 0.00 | 0.00 | 0.00 | 84 | 1015.0 |
| 20260508154804 | 61 | 259 | 0.0 | 2.0 | 0.00 | 0.00 | 0.00 | 84 | 1014.9 |
| 20260508154044 | 61 | 254 | 1.0 | 3.0 | 0.00 | 0.00 | 0.00 | 84 | 1014.9 |
| 20260508153543 | 61 | 282 | 1.0 | 3.0 | 0.00 | 0.00 | 0.00 | 85 | 1014.9 |
| 20260508153304 | 61 | 283 | 1.0 | 5.0 | 0.00 | 0.00 | 0.00 | 85 | 1015.0 |
| 20260508152544 | 61 | 246 | 1.0 | 5.0 | 0.00 | 0.00 | 0.00 | 86 | 1015.0 |
| 20260508152044 | 61 | 232 | 4.0 | 5.0 | 0.00 | 0.00 | 0.00 | 85 | 1015.0 |
| 20260508151808 | 61 | 256 | 0.0 | 5.0 | 0.00 | 0.00 | 0.00 | 86 | 1014.9 |
| 20260508151305 | 61 | 237 | 0.0 | 5.0 | 0.00 | 0.00 | 0.00 | 86 | 1015.0 |
| 20260508150544 | 61 | 263 | 2.0 | 3.0 | 0.00 | 0.00 | 0.00 | 86 | 1014.9 |
| 20260508150043 | 61 | 264 | 1.0 | 3.0 | 0.00 | 0.00 | 0.00 | 87 | 1015.0 |
| 20260508145542 | 61 | 291 | 1.0 | 3.0 | 0.00 | 0.00 | 0.00 | 87 | 1015.0 |
| 20260508145307 | 61 | 250 | 0.0 | 2.0 | 0.00 | 0.00 | 0.00 | 87 | 1014.9 |
| 20260508144544 | 61 | 257 | 1.0 | 2.0 | 0.00 | 0.00 | 0.00 | 87 | 1014.9 |
| 20260508144045 | 60 | 265 | 0.0 | 0.0 | 0.00 | 0.00 | 0.00 | 87 | 1014.9 |
| 20260508143541 | 60 | 267 | 0.0 | 1.0 | 0.00 | 0.00 | 0.00 | 87 | 1014.9 |
| 20260508143041 | 60 | 256 | 0.0 | 1.0 | 0.00 | 0.00 | 0.00 | 87 | 1014.9 |
| 20260508142543 | 60 | 258 | 0.0 | 1.0 | 0.00 | 0.00 | 0.00 | 87 | 1014.9 |
| 20260508142043 | 60 | 256 | 0.0 | 1.0 | 0.00 | 0.00 | 0.00 | 87 | 1014.8 |
| 20260508141544 | 60 | 257 | 0.0 | 1.0 | 0.00 | 0.00 | 0.00 | 88 | 1014.7 |
| 20260508141043 | 60 | 267 | 0.0 | 1.0 | 0.00 | 0.00 | 0.00 | 88 | 1014.7 |
| 20260508140541 | 60 | 269 | 0.0 | 1.0 | 0.00 | 0.00 | 0.00 | 88 | 1014.6 |
| 20260508140042 | 60 | 234 | 1.0 | 1.0 | 0.00 | 0.00 | 0.00 | 88 | 1014.7 |
| 20260508135542 | 60 | 248 | 0.0 | 1.0 | 0.00 | 0.00 | 0.00 | 88 | 1014.7 |
| 20260508135041 | 60 | 255 | 0.0 | 1.0 | 0.00 | 0.00 | 0.00 | 88 | 1014.6 |
| 20260508134540 | 60 | 245 | 0.0 | 2.0 | 0.00 | 0.00 | 0.00 | 88 | 1014.6 |
| 20260508134041 | 60 | 224 | 1.0 | 2.0 | 0.00 | 0.00 | 0.00 | 88 | 1014.6 |
| 20260508133543 | 60 | 220 | 1.0 | 2.0 | 0.00 | 0.00 | 0.00 | 88 | 1014.4 |
| 20260508133040 | 60 | 248 | 0.0 | 2.0 | 0.00 | 0.00 | 0.00 | 89 | 1014.4 |
| 20260508132541 | 60 | 225 | 2.0 | 2.0 | 0.00 | 0.00 | 0.00 | 89 | 1014.4 |
| 20260508132040 | 60 | 231 | 1.0 | 1.0 | 0.00 | 0.00 | 0.00 | 89 | 1014.3 |
| 20260508131541 | 60 | 248 | 0.0 | 1.0 | 0.00 | 0.00 | 0.00 | 89 | 1014.3 |
| 20260508131040 | 60 | 251 | 0.0 | 3.0 | 0.00 | 0.00 | 0.00 | 89 | 1014.2 |
| 20260508130540 | 60 | 251 | 0.0 | 3.0 | 0.00 | 0.00 | 0.00 | 89 | 1014.4 |
| 20260508130041 | 60 | 220 | 2.0 | 2.0 | 0.00 | 0.00 | 0.00 | 89 | 1014.2 |
| 20260508125541 | 60 | 244 | 0.0 | 1.0 | 0.00 | 0.00 | 0.00 | 89 | 1014.2 |
| 20260508125039 | 60 | 252 | 0.0 | 3.0 | 0.00 | 0.00 | 0.00 | 89 | 1014.2 |
| 20260508124540 | 60 | 254 | 0.0 | 3.0 | 0.00 | 0.00 | 0.00 | 89 | 1014.2 |
| 20260508124306 | 60 | 244 | 1.0 | 2.0 | 0.00 | 0.00 | 0.00 | 89 | 1014.1 |
| 20260508123539 | 60 | 254 | 0.0 | 1.0 | 0.00 | 0.00 | 0.00 | 89 | 1014.1 |
| 20260508123300 | 60 | 265 | 0.0 | 1.0 | 0.00 | 0.00 | 0.00 | 90 | 1014.2 |
| 20260508122041 | 60 | 262 | 0.0 | 1.0 | 0.00 | 0.00 | 0.00 | 89 | 1014.1 |
| 20260508121541 | 60 | 251 | 0.0 | 2.0 | 0.00 | 0.00 | 0.00 | 89 | 1014.1 |
| 20260508121038 | 60 | 259 | 0.0 | 2.0 | 0.00 | 0.00 | 0.00 | 89 | 1014.1 |
| 20260508120538 | 60 | 234 | 1.0 | 2.0 | 0.00 | 0.00 | 0.00 | 89 | 1014.1 |
| 20260508120039 | 60 | 249 | 0.0 | 2.0 | 0.00 | 0.00 | 0.00 | 89 | 1014.2 |
| 20260508115540 | 60 | 247 | 0.0 | 3.0 | 0.00 | 0.00 | 0.00 | 89 | 1014.1 |
| 20260508115038 | 60 | 250 | 0.0 | 3.0 | 0.00 | 0.00 | 0.00 | 89 | 1014.1 |
| 20260508114537 | 60 | 241 | 0.0 | 0.0 | 0.00 | 0.00 | 0.00 | 89 | 1014.1 |
| 20260508114039 | 60 | 243 | 0.0 | 0.0 | 0.00 | 0.00 | 0.00 | 89 | 1014.0 |
| 20260508113539 | 60 | 252 | 0.0 | 2.0 | 0.00 | 0.00 | 0.00 | 89 | 1014.1 |
| 20260508113037 | 60 | 262 | 0.0 | 2.0 | 0.00 | 0.00 | 0.00 | 89 | 1014.1 |
| 20260508112538 | 60 | 239 | 1.0 | 2.0 | 0.00 | 0.00 | 0.00 | 89 | 1014.0 |
| 20260508112039 | 60 | 256 | 0.0 | 2.0 | 0.00 | 0.00 | 0.00 | 89 | 1014.0 |
| 20260508111539 | 60 | 251 | 0.0 | 6.0 | 0.00 | 0.00 | 0.00 | 89 | 1014.0 |
| 20260508111037 | 60 | 226 | 1.0 | 6.0 | 0.00 | 0.00 | 0.00 | 89 | 1014.0 |
| 20260508110537 | 60 | 240 | 3.0 | 5.0 | 0.00 | 0.00 | 0.00 | 89 | 1014.0 |
| 20260508110036 | 60 | 241 | 1.0 | 3.0 | 0.00 | 0.00 | 0.00 | 88 | 1014.1 |
| 20260508105537 | 60 | 253 | 1.0 | 2.0 | 0.00 | 0.00 | 0.00 | 88 | 1014.0 |
| 20260508105038 | 60 | 243 | 1.0 | 2.0 | 0.00 | 0.00 | 0.00 | 88 | 1014.1 |
| 20260508104537 | 60 | 253 | 0.0 | 2.0 | 0.00 | 0.00 | 0.00 | 88 | 1014.0 |
| 20260508104036 | 60 | 248 | 0.0 | 3.0 | 0.00 | 0.00 | 0.00 | 88 | 1014.1 |
| 20260508103538 | 60 | 231 | 1.0 | 5.0 | 0.00 | 0.00 | 0.00 | 88 | 1014.1 |
| 20260508103257 | 60 | 245 | 1.0 | 5.0 | 0.00 | 0.00 | 0.00 | 88 | 1014.2 |
| 20260508102758 | 60 | 215 | 2.0 | 5.0 | 0.00 | 0.00 | 0.00 | 88 | 1014.3 |
| 20260508102036 | 60 | 258 | 3.0 | 5.0 | 0.00 | 0.00 | 0.00 | 88 | 1014.3 |
| 20260508101535 | 60 | 224 | 2.0 | 3.0 | 0.00 | 0.00 | 0.00 | 88 | 1014.3 |
| 20260508101036 | 60 | 248 | 0.0 | 2.0 | 0.00 | 0.00 | 0.00 | 88 | 1014.4 |
| 20260508100536 | 60 | 238 | 1.0 | 2.0 | 0.00 | 0.00 | 0.00 | 88 | 1014.4 |
| 20260508100034 | 60 | 243 | 1.0 | 5.0 | 0.00 | 0.00 | 0.00 | 88 | 1014.4 |
| 20260508095801 | 60 | 241 | 1.0 | 6.0 | 0.00 | 0.00 | 0.00 | 88 | 1014.3 |
| 20260508095035 | 60 | 223 | 2.0 | 6.0 | 0.00 | 0.00 | 0.00 | 88 | 1014.3 |
| 20260508094534 | 60 | 202 | 2.0 | 3.0 | 0.00 | 0.00 | 0.00 | 88 | 1014.2 |
| 20260508094033 | 60 | 239 | 1.0 | 3.0 | 0.00 | 0.00 | 0.00 | 89 | 1014.2 |
| 20260508093535 | 60 | 226 | 2.0 | 2.0 | 0.00 | 0.00 | 0.00 | 88 | 1014.1 |
| 20260508093035 | 60 | 245 | 0.0 | 2.0 | 0.00 | 0.00 | 0.00 | 88 | 1014.2 |
| 20260508092535 | 60 | 252 | 0.0 | 1.0 | 0.00 | 0.00 | 0.00 | 88 | 1014.2 |
| 20260508092033 | 60 | 244 | 0.0 | 0.0 | 0.00 | 0.00 | 0.00 | 89 | 1014.2 |
| 20260508091534 | 60 | 261 | 0.0 | 0.0 | 0.00 | 0.00 | 0.00 | 89 | 1014.3 |
| 20260508091034 | 60 | 270 | 0.0 | 1.0 | 0.00 | 0.00 | 0.00 | 89 | 1014.2 |
| 20260508090534 | 60 | 295 | 1.0 | 2.0 | 0.00 | 0.00 | 0.00 | 89 | 1014.2 |
| 20260508090033 | 60 | 231 | 1.0 | 2.0 | 0.00 | 0.00 | 0.00 | 89 | 1014.2 |
| 20260508085534 | 60 | 226 | 1.0 | 3.0 | 0.00 | 0.00 | 0.00 | 89 | 1014.3 |
| 20260508085034 | 60 | 223 | 2.0 | 5.0 | 0.00 | 0.00 | 0.00 | 89 | 1014.3 |
| 20260508084533 | 60 | 191 | 2.0 | 5.0 | 0.00 | 0.00 | 0.00 | 88 | 1014.4 |
| 20260508084033 | 60 | 234 | 1.0 | 3.0 | 0.00 | 0.00 | 0.00 | 88 | 1014.4 |
| 20260508083534 | 60 | 267 | 0.0 | 2.0 | 0.00 | 0.00 | 0.00 | 88 | 1014.4 |
| 20260508083033 | 60 | 244 | 1.0 | 2.0 | 0.00 | 0.00 | 0.00 | 88 | 1014.5 |
| 20260508082532 | 60 | 296 | 1.0 | 2.0 | 0.00 | 0.00 | 0.00 | 89 | 1014.5 |
| 20260508082031 | 60 | 251 | 1.0 | 3.0 | 0.00 | 0.00 | 0.00 | 88 | 1014.5 |
| 20260508081753 | 60 | 240 | 1.0 | 5.0 | 0.00 | 0.00 | 0.00 | 88 | 1014.7 |
| 20260508081033 | 61 | 169 | 3.0 | 5.0 | 0.00 | 0.00 | 0.00 | 89 | 1014.7 |
| 20260508080532 | 61 | 189 | 3.0 | 3.0 | 0.00 | 0.00 | 0.00 | 88 | 1014.7 |
| 20260508080032 | 61 | 224 | 2.0 | 2.0 | 0.00 | 0.00 | 0.00 | 88 | 1014.8 |
| 20260508075533 | 61 | 252 | 0.0 | 1.0 | 0.00 | 0.00 | 0.00 | 88 | 1014.8 |
| 20260508075253 | 61 | 246 | 0.0 | 1.0 | 0.00 | 0.00 | 0.00 | 88 | 1014.9 |
| 20260508074531 | 61 | 256 | 0.0 | 3.0 | 0.00 | 0.00 | 0.00 | 88 | 1014.9 |
| 20260508074031 | 61 | 246 | 0.0 | 3.0 | 0.00 | 0.00 | 0.00 | 88 | 1014.9 |
| 20260508073755 | 61 | 332 | 0.0 | 2.0 | 0.00 | 0.00 | 0.00 | 87 | 1014.8 |
| 20260508073032 | 61 | 248 | 0.0 | 1.0 | 0.00 | 0.00 | 0.00 | 87 | 1014.9 |
| 20260508072532 | 61 | 258 | 0.0 | 1.0 | 0.00 | 0.00 | 0.00 | 87 | 1014.8 |
| 20260508072032 | 61 | 243 | 0.0 | 1.0 | 0.00 | 0.00 | 0.00 | 87 | 1014.8 |
| 20260508071530 | 61 | 250 | 0.0 | 1.0 | 0.00 | 0.00 | 0.00 | 87 | 1014.9 |
| 20260508071032 | 60 | 248 | 0.0 | 2.0 | 0.00 | 0.00 | 0.00 | 87 | 1015.0 |
| 20260508070531 | 60 | 254 | 0.0 | 2.0 | 0.00 | 0.00 | 0.00 | 87 | 1015.0 |
| 20260508070030 | 60 | 252 | 0.0 | 1.0 | 0.00 | 0.00 | 0.00 | 88 | 1015.0 |
| 20260508065530 | 60 | 262 | 0.0 | 1.0 | 0.00 | 0.00 | 0.00 | 88 | 1015.0 |
| 20260508065257 | 60 | 239 | 0.0 | 2.0 | 0.00 | 0.00 | 0.00 | 88 | 1015.1 |
| 20260508064530 | 61 | 238 | 1.0 | 2.0 | 0.00 | 0.00 | 0.00 | 87 | 1015.1 |
| 20260508064031 | 61 | 243 | 1.0 | 2.0 | 0.00 | 0.00 | 0.00 | 87 | 1015.1 |
| 20260508063530 | 61 | 235 | 1.0 | 3.0 | 0.00 | 0.00 | 0.00 | 87 | 1015.2 |
| 20260508063030 | 61 | 225 | 1.0 | 5.0 | 0.00 | 0.00 | 0.00 | 87 | 1015.1 |
| 20260508062531 | 61 | 271 | 0.0 | 5.0 | 0.00 | 0.00 | 0.00 | 87 | 1015.1 |
| 20260508062029 | 61 | 158 | 3.0 | 5.0 | 0.00 | 0.00 | 0.00 | 87 | 1015.1 |
| 20260508061529 | 61 | 221 | 0.0 | 2.0 | 0.00 | 0.00 | 0.00 | 87 | 1015.2 |
| 20260508061030 | 61 | 237 | 0.0 | 2.0 | 0.00 | 0.00 | 0.00 | 87 | 1015.2 |
| 20260508060531 | 61 | 242 | 0.0 | 3.0 | 0.00 | 0.00 | 0.00 | 86 | 1015.2 |
| 20260508060029 | 61 | 252 | 0.0 | 5.0 | 0.00 | 0.00 | 0.00 | 87 | 1015.3 |
| 20260508055529 | 61 | 250 | 2.0 | 6.0 | 0.00 | 0.00 | 0.00 | 87 | 1015.2 |
| 20260508055029 | 61 | 224 | 3.0 | 6.0 | 0.00 | 0.00 | 0.00 | 87 | 1015.2 |
| 20260508054530 | 61 | 212 | 3.0 | 5.0 | 0.00 | 0.00 | 0.00 | 87 | 1015.1 |
| 20260508054029 | 61 | 240 | 2.0 | 5.0 | 0.00 | 0.00 | 0.00 | 87 | 1015.2 |
| 20260508053529 | 61 | 213 | 3.0 | 5.0 | 0.00 | 0.00 | 0.00 | 86 | 1015.1 |
| 20260508053253 | 61 | 242 | 1.0 | 2.0 | 0.00 | 0.00 | 0.00 | 86 | 1015.1 |
| 20260508052529 | 61 | 253 | 0.0 | 1.0 | 0.00 | 0.00 | 0.00 | 86 | 1015.1 |
| 20260508052028 | 61 | 255 | 0.0 | 1.0 | 0.00 | 0.00 | 0.00 | 86 | 1015.1 |
| 20260508051528 | 61 | 264 | 0.0 | 1.0 | 0.00 | 0.00 | 0.00 | 86 | 1015.1 |
| 20260508051031 | 61 | 253 | 1.0 | 3.0 | 0.00 | 0.00 | 0.00 | 86 | 1015.1 |
| 20260508050530 | 61 | 243 | 1.0 | 5.0 | 0.00 | 0.00 | 0.00 | 86 | 1015.1 |
| 20260508050028 | 61 | 236 | 2.0 | 6.0 | 0.00 | 0.00 | 0.00 | 86 | 1015.1 |
| 20260508045748 | 61 | 254 | 0.0 | 6.0 | 0.00 | 0.00 | 0.00 | 86 | 1015.1 |
| 20260508045029 | 61 | 248 | 1.0 | 5.0 | 0.00 | 0.00 | 0.00 | 86 | 1015.1 |
| 20260508044757 | 61 | 221 | 4.0 | 5.0 | 0.00 | 0.00 | 0.00 | 86 | 1015.1 |
| 20260508044027 | 61 | 243 | 1.0 | 6.0 | 0.00 | 0.00 | 0.00 | 86 | 1015.1 |
| 20260508043528 | 61 | 245 | 2.0 | 8.0 | 0.00 | 0.00 | 0.00 | 86 | 1015.0 |
| 20260508043028 | 61 | 218 | 4.0 | 8.0 | 0.00 | 0.00 | 0.00 | 86 | 1014.9 |
| 20260508042528 | 61 | 220 | 6.0 | 7.0 | 0.00 | 0.00 | 0.00 | 86 | 1014.8 |
| 20260508042026 | 61 | 263 | 1.0 | 3.0 | 0.00 | 0.00 | 0.00 | 86 | 1014.7 |
| 20260508041751 | 61 | 257 | 0.0 | 3.0 | 0.00 | 0.00 | 0.00 | 86 | 1014.6 |
| 20260508041026 | 61 | 251 | 2.0 | 3.0 | 0.00 | 0.00 | 0.00 | 86 | 1014.5 |
| 20260508040528 | 61 | 244 | 0.0 | 2.0 | 0.00 | 0.00 | 0.00 | 86 | 1014.5 |
| 20260508040249 | 61 | 264 | 0.0 | 2.0 | 0.00 | 0.00 | 0.00 | 86 | 1014.4 |
| 20260508035526 | 61 | 266 | 2.0 | 2.0 | 0.00 | 0.00 | 0.00 | 86 | 1014.4 |
| 20260508035026 | 61 | 265 | 0.0 | 2.0 | 0.00 | 0.00 | 0.00 | 86 | 1014.4 |
| 20260508034748 | 61 | 270 | 0.0 | 3.0 | 0.00 | 0.00 | 0.00 | 86 | 1014.4 |
| 20260508034027 | 60 | 239 | 0.0 | 3.0 | 0.00 | 0.00 | 0.00 | 87 | 1014.2 |
| 20260508033525 | 60 | 227 | 2.0 | 2.0 | 0.00 | 0.00 | 0.00 | 87 | 1014.3 |
| 20260508033026 | 60 | 254 | 0.0 | 3.0 | 0.00 | 0.00 | 0.00 | 87 | 1014.2 |
| 20260508032027 | 60 | 250 | 1.0 | 5.0 | 0.00 | 0.00 | 0.00 | 87 | 1014.1 |
| 20260508031526 | 60 | 260 | 2.0 | 5.0 | 0.00 | 0.00 | 0.00 | 88 | 1014.0 |
| 20260508031247 | 60 | 250 | 0.0 | 5.0 | 0.00 | 0.00 | 0.00 | 87 | 1013.9 |
| 20260508030750 | 61 | 233 | 4.0 | 5.0 | 0.00 | 0.00 | 0.00 | 87 | 1013.8 |
| 20260508030026 | 61 | 276 | 3.0 | 5.0 | 0.00 | 0.00 | 0.00 | 87 | 1013.8 |
| 20260508025525 | 61 | 263 | 1.0 | 5.0 | 0.00 | 0.00 | 0.00 | 87 | 1013.7 |
| 20260508025025 | 61 | 260 | 2.0 | 6.0 | 0.00 | 0.00 | 0.00 | 87 | 1013.6 |
| 20260508024746 | 62 | 286 | 2.0 | 6.0 | 0.00 | 0.00 | 0.00 | 86 | 1013.5 |
| 20260508024026 | 62 | 258 | 1.0 | 6.0 | 0.00 | 0.00 | 0.00 | 86 | 1013.5 |
| 20260508023524 | 62 | 272 | 2.0 | 6.0 | 0.00 | 0.00 | 0.00 | 85 | 1013.5 |
| 20260508023025 | 63 | 330 | 3.0 | 6.0 | 0.00 | 0.00 | 0.00 | 84 | 1013.4 |
| 20260508022748 | 63 | 289 | 3.0 | 6.0 | 0.00 | 0.00 | 0.00 | 84 | 1013.5 |
| 20260508022025 | 63 | 260 | 4.0 | 5.0 | 0.00 | 0.00 | 0.00 | 82 | 1013.4 |
| 20260508021525 | 64 | 305 | 3.0 | 5.0 | 0.00 | 0.00 | 0.00 | 82 | 1013.4 |
| 20260508021025 | 64 | 282 | 2.0 | 5.0 | 0.00 | 0.00 | 0.00 | 81 | 1013.2 |
| 20260508020525 | 64 | 265 | 3.0 | 5.0 | 0.00 | 0.00 | 0.00 | 80 | 1013.2 |
| 20260508020024 | 64 | 309 | 1.0 | 5.0 | 0.00 | 0.00 | 0.00 | 80 | 1013.1 |
| 20260508015524 | 65 | 280 | 2.0 | 6.0 | 0.00 | 0.00 | 0.00 | 80 | 1013.1 |
| 20260508015245 | 65 | 312 | 2.0 | 6.0 | 0.00 | 0.00 | 0.00 | 79 | 1013.1 |
| 20260508014526 | 65 | 265 | 3.0 | 6.0 | 0.00 | 0.00 | 0.00 | 79 | 1013.2 |
| 20260508014025 | 66 | 339 | 4.0 | 6.0 | 0.00 | 0.00 | 0.00 | 78 | 1013.1 |
| 20260508013523 | 66 | 256 | 3.0 | 7.0 | 0.00 | 0.00 | 0.00 | 76 | 1013.1 |
| 20260508013023 | 66 | 331 | 4.0 | 7.0 | 0.00 | 0.00 | 0.00 | 77 | 1013.1 |
| 20260508012524 | 66 | 271 | 2.0 | 6.0 | 0.00 | 0.00 | 0.00 | 76 | 1013.0 |
| 20260508012024 | 66 | 277 | 3.0 | 5.0 | 0.00 | 0.00 | 0.00 | 76 | 1013.1 |
| 20260508011525 | 66 | 280 | 2.0 | 7.0 | 0.00 | 0.00 | 0.00 | 75 | 1013.0 |
| 20260508011023 | 66 | 339 | 5.0 | 7.0 | 0.00 | 0.00 | 0.00 | 75 | 1013.0 |
| 20260508010522 | 66 | 287 | 2.0 | 7.0 | 0.00 | 0.00 | 0.00 | 75 | 1013.0 |
| 20260508010023 | 66 | 297 | 4.0 | 8.0 | 0.00 | 0.00 | 0.00 | 76 | 1013.0 |
| 20260508005523 | 66 | 340 | 3.0 | 8.0 | 0.00 | 0.00 | 0.00 | 76 | 1013.0 |
| 20260508005023 | 67 | 354 | 3.0 | 8.0 | 0.00 | 0.00 | 0.00 | 76 | 1013.0 |
| 20260508004523 | 67 | 332 | 3.0 | 6.0 | 0.00 | 0.00 | 0.00 | 75 | 1013.1 |
| 20260508004023 | 67 | 335 | 4.0 | 6.0 | 0.00 | 0.00 | 0.00 | 76 | 1013.1 |
| 20260508003524 | 67 | 16 | 1.0 | 8.0 | 0.00 | 0.00 | 0.00 | 74 | 1013.1 |
| 20260508003022 | 67 | 275 | 3.0 | 8.0 | 0.00 | 0.00 | 0.00 | 75 | 1013.1 |
| 20260508002522 | 67 | 334 | 4.0 | 8.0 | 0.00 | 0.00 | 0.00 | 74 | 1013.1 |
| 20260508002023 | 67 | 348 | 5.0 | 8.0 | 0.00 | 0.00 | 0.00 | 75 | 1013.2 |
| 20260508001523 | 67 | 292 | 4.0 | 8.0 | 0.00 | 0.00 | 0.00 | 74 | 1013.1 |
| 20260508001021 | 67 | 273 | 2.0 | 7.0 | 0.00 | 0.00 | 0.00 | 74 | 1013.1 |
| 20260508000522 | 67 | 291 | 5.0 | 8.0 | 0.00 | 0.00 | 0.00 | 74 | 1013.1 |
| 20260508000022 | 67 | 280 | 3.0 | 8.0 | 0.00 | 0.00 | 0.00 | 74 | 1013.2 |
| 20260507235522 | 67 | 234 | 4.0 | 9.0 | 0.00 | 0.00 | 0.00 | 73 | 1013.1 |
| 20260507235021 | 67 | 270 | 3.0 | 9.0 | 0.00 | 0.00 | 0.00 | 73 | 1013.1 |
| 20260507234520 | 67 | 352 | 4.0 | 6.0 | 0.00 | 0.00 | 0.00 | 72 | 1013.2 |
| 20260507234243 | 67 | 268 | 1.0 | 10.0 | 0.00 | 0.00 | 0.00 | 73 | 1013.1 |
| 20260507233521 | 67 | 266 | 3.0 | 10.0 | 0.00 | 0.00 | 0.00 | 74 | 1013.3 |
| 20260507233020 | 67 | 2 | 7.0 | 9.0 | 0.00 | 0.00 | 0.00 | 73 | 1013.0 |
| 20260507232522 | 67 | 341 | 4.0 | 9.0 | 0.00 | 0.00 | 0.00 | 73 | 1013.1 |
| 20260507232021 | 67 | 342 | 2.0 | 7.0 | 0.00 | 0.00 | 0.00 | 72 | 1013.1 |
| 20260507231522 | 67 | 262 | 1.0 | 10.0 | 0.00 | 0.00 | 0.00 | 73 | 1013.1 |
| 20260507231020 | 68 | 258 | 6.0 | 10.0 | 0.00 | 0.00 | 0.00 | 74 | 1013.1 |
| 20260507230520 | 68 | 301 | 7.0 | 8.0 | 0.00 | 0.00 | 0.00 | 72 | 1013.2 |
| 20260507230246 | 68 | 303 | 6.0 | 9.0 | 0.00 | 0.00 | 0.00 | 72 | 1013.2 |
| 20260507225246 | 68 | 315 | 5.0 | 10.0 | 0.00 | 0.00 | 0.00 | 73 | 1013.2 |
| 20260507224743 | 68 | 268 | 5.0 | 10.0 | 0.00 | 0.00 | 0.00 | 73 | 1013.2 |
| 20260507224243 | 68 | 274 | 3.0 | 9.0 | 0.00 | 0.00 | 0.00 | 71 | 1013.2 |
| 20260507223521 | 68 | 268 | 3.0 | 9.0 | 0.00 | 0.00 | 0.00 | 72 | 1013.2 |
| 20260507223019 | 67 | 347 | 2.0 | 12.0 | 0.00 | 0.00 | 0.00 | 72 | 1013.3 |
| 20260507222519 | 67 | 263 | 4.0 | 12.0 | 0.00 | 0.00 | 0.00 | 73 | 1013.3 |
| 20260507222243 | 67 | 281 | 5.0 | 9.0 | 0.00 | 0.00 | 0.00 | 73 | 1013.4 |
| 20260507221520 | 67 | 313 | 5.0 | 9.0 | 0.00 | 0.00 | 0.00 | 72 | 1013.4 |
| 20260507221019 | 67 | 256 | 5.0 | 13.0 | 0.00 | 0.00 | 0.00 | 72 | 1013.4 |
| 20260507220518 | 67 | 275 | 4.0 | 13.0 | 0.00 | 0.00 | 0.00 | 74 | 1013.5 |
| 20260507220020 | 68 | 251 | 4.0 | 10.0 | 0.00 | 0.00 | 0.00 | 72 | 1013.5 |
| 20260507215750 | 68 | 268 | 3.0 | 10.0 | 0.00 | 0.00 | 0.00 | 73 | 1013.6 |
| 20260507215246 | 67 | 250 | 2.0 | 12.0 | 0.00 | 0.00 | 0.00 | 73 | 1013.7 |
| 20260507214518 | 67 | 345 | 2.0 | 12.0 | 0.00 | 0.00 | 0.00 | 72 | 1013.6 |
| 20260507214019 | 67 | 247 | 6.0 | 9.0 | 0.00 | 0.00 | 0.00 | 73 | 1013.8 |
| 20260507213735 | 67 | 346 | 7.0 | 9.0 | 0.00 | 0.00 | 0.00 | 73 | 1013.8 |
| 20260507213019 | 67 | 339 | 5.0 | 13.0 | 0.00 | 0.00 | 0.00 | 74 | 1013.9 |
| 20260507212519 | 67 | 319 | 6.0 | 13.0 | 0.00 | 0.00 | 0.00 | 74 | 1013.9 |
| 20260507212017 | 67 | 353 | 1.0 | 13.0 | 0.00 | 0.00 | 0.00 | 74 | 1013.9 |
| 20260507211737 | 67 | 295 | 4.0 | 12.0 | 0.00 | 0.00 | 0.00 | 72 | 1014.0 |
| 20260507211019 | 67 | 241 | 7.0 | 12.0 | 0.00 | 0.00 | 0.00 | 73 | 1014.0 |
| 20260507210518 | 67 | 347 | 9.0 | 12.0 | 0.00 | 0.00 | 0.00 | 73 | 1014.1 |
| 20260507210241 | 67 | 323 | 6.0 | 14.0 | 0.00 | 0.00 | 0.00 | 73 | 1014.0 |
| 20260507205518 | 67 | 273 | 2.0 | 14.0 | 0.00 | 0.00 | 0.00 | 74 | 1014.1 |
| 20260507205031 | 67 | 2 | 5.0 | 13.0 | 0.00 | 0.00 | 0.00 | 75 | 1014.1 |
| 20260507204518 | 67 | 298 | 8.0 | 13.0 | 0.00 | 0.00 | 0.00 | 73 | 1014.2 |
| 20260507204017 | 67 | 335 | 2.0 | 13.0 | 0.00 | 0.00 | 0.00 | 74 | 1014.1 |
| 20260507203518 | 67 | 320 | 7.0 | 13.0 | 0.00 | 0.00 | 0.00 | 75 | 1014.2 |
| 20260507203243 | 67 | 12 | 4.0 | 13.0 | 0.00 | 0.00 | 0.00 | 74 | 1014.2 |
| 20260507202742 | 67 | 255 | 4.0 | 13.0 | 0.00 | 0.00 | 0.00 | 71 | 1014.2 |
| 20260507202017 | 67 | 4 | 5.0 | 14.0 | 0.00 | 0.00 | 0.00 | 74 | 1014.2 |
| 20260507201517 | 67 | 238 | 2.0 | 14.0 | 0.00 | 0.00 | 0.00 | 74 | 1014.3 |
| 20260507201244 | 67 | 341 | 7.0 | 13.0 | 0.00 | 0.00 | 0.00 | 73 | 1014.2 |
| 20260507200516 | 68 | 1 | 8.0 | 12.0 | 0.00 | 0.00 | 0.00 | 73 | 1014.2 |
| 20260507200017 | 68 | 1 | 6.0 | 10.0 | 0.00 | 0.00 | 0.00 | 72 | 1014.3 |
| 20260507195734 | 68 | 348 | 4.0 | 9.0 | 0.00 | 0.00 | 0.00 | 73 | 1014.3 |
| 20260507195017 | 68 | 274 | 6.0 | 9.0 | 0.00 | 0.00 | 0.00 | 71 | 1014.4 |
| 20260507194516 | 68 | 313 | 5.0 | 12.0 | 0.00 | 0.00 | 0.00 | 72 | 1014.3 |
| 20260507194016 | 68 | 344 | 4.0 | 13.0 | 0.00 | 0.00 | 0.00 | 72 | 1014.3 |
| 20260507193742 | 68 | 331 | 7.0 | 13.0 | 0.00 | 0.00 | 0.00 | 74 | 1014.3 |
| 20260507193018 | 67 | 310 | 4.0 | 9.0 | 0.00 | 0.00 | 0.00 | 71 | 1014.3 |
| 20260507192515 | 67 | 250 | 3.0 | 10.0 | 0.00 | 0.00 | 0.00 | 73 | 1014.3 |
| 20260507192015 | 67 | 319 | 4.0 | 10.0 | 0.00 | 0.00 | 0.00 | 73 | 1014.3 |
| 20260507191517 | 67 | 263 | 5.0 | 10.0 | 0.00 | 0.00 | 0.00 | 74 | 1014.4 |
| 20260507191017 | 67 | 276 | 2.0 | 10.0 | 0.00 | 0.00 | 0.00 | 72 | 1014.5 |
| 20260507190016 | 67 | 297 | 4.0 | 9.0 | 0.00 | 0.00 | 0.00 | 73 | 1014.7 |
| 20260507185516 | 67 | 254 | 2.0 | 9.0 | 0.00 | 0.00 | 0.00 | 72 | 1014.6 |
| 20260507185016 | 67 | 331 | 3.0 | 9.0 | 0.00 | 0.00 | 0.00 | 74 | 1014.8 |
| 20260507184516 | 67 | 268 | 3.0 | 9.0 | 0.00 | 0.00 | 0.00 | 73 | 1014.8 |
| 20260507184015 | 67 | 267 | 4.0 | 9.0 | 0.00 | 0.00 | 0.00 | 73 | 1014.8 |
| 20260507183731 | 67 | 346 | 5.0 | 9.0 | 0.00 | 0.00 | 0.00 | 73 | 1014.8 |
| 20260507183248 | 67 | 267 | 6.0 | 12.0 | 0.00 | 0.00 | 0.00 | 72 | 1014.8 |
| 20260507182517 | 67 | 304 | 8.0 | 12.0 | 0.00 | 0.00 | 0.00 | 74 | 1014.8 |
| 20260507182015 | 67 | 250 | 2.0 | 10.0 | 0.00 | 0.00 | 0.00 | 74 | 1014.9 |